Regional Weather Roundup
Issued by NWS Wakefield, VA

Home | Current Version | Previous Version | Graphics & Text | Print | Product List | Glossary On
Versions: 1 2 3 4 5 6 7 8 9 10 11 12 13 14 15 16 17 18 19 20 21 22 23 24 25 26 27 28 29 30 31 32 33 34 35 36 37 38 39 40 41 42 43 44 45 46 47 48 49 50
367
ASUS41 KAKQ 191215
RWRAKQ

REGIONAL WEATHER ROUNDUP
NATIONAL WEATHER SERVICE WAKEFIELD VA
800 AM EDT TUE SEP 19 2017

Note: "fair" indicates few or no clouds below 12,000 feet with no
significant weather and/or obstructions to visibility. * = Denotes
station may not report precipitation (e.g., rain,snow,etc.),
thunder or fog.

VAZ042-051-052>054-056-191300-
NORTHERN VIRGINIA

CITY           SKY/WX    TMP DP  RH WIND       PRES   REMARKS
WASH NATIONAL  CLOUDY    70  67  90 N10       29.99F
DULLES         PTSUNNY   67  65  93 N12       30.02R
FORT BELVOIR   CLOUDY    69  64  85 NW8       29.99S
QUANTICO       PTSUNNY   69  66  90 N13       30.00S
FREDERICKSBRG* CLOUDY    68  68 100 N6        29.98S
STAFFORD*      PTSUNNY   66  66 100 N9        30.03F
WARRENTON      CLOUDY    68  63  82 N9        30.01S
CULPEPER*      CLOUDY    68  66  92 N10       30.03R
MANASSAS*      CLOUDY    68  65  90 N12       30.01S
LEESBURG*      CLOUDY    68  68 100 NE6       30.04R
WINCHESTER     SUNNY     63  61  94 CALM      30.05S FOG
FRONT ROYAL*   CLOUDY    64  64 100 CALM      30.04S
LURAY*         CLOUDY    64  64 100 NE3       30.05S FOG
$$

VAZ048-049-060>072-079>083-191300-
CENTRAL AND SOUTH CENTRAL VIRGINIA

CITY           SKY/WX    TMP DP  RH WIND       PRES   REMARKS
RICHMOND       CLOUDY    68  66  93 N14       29.96R
CHESTERFIELD*  NOT AVBL
PETERSBURG*    CLOUDY    67  65  92 N8        29.97R
HANOVER        CLOUDY    68  66  93 VRB5      29.98S
TAPPAHANNOCK*  CLOUDY    70  70 100 NW6       29.95F
QUINTON*       CLOUDY    68  68 100 NW9       29.95R
CHARLOTTSVILLE SUNNY     67  65  93 NW3       30.02S
GORDONSVILLE*  MOSUNNY   67  65  96 N3        30.01S
ORANGE*        PTSUNNY   64  63  94 CALM      30.01S
LOUISA*        CLOUDY    66  63  88 NW7       30.00S FOG
BUMPASS*       CLOUDY    67  67 100 N5        29.99S
FARMVILLE*     CLOUDY    68  68 100 N7        30.00R
CREWE*         CLOUDY    67  67 100 N5        29.99R
FORT PICKETT*  CLOUDY    67  67 100 N10       29.99R
CHASE CITY*    CLOUDY    66  66 100 N3        30.00R
CLARKSVILLE*   CLOUDY    64  64 100 N6        29.99R
SOUTH HILL*    CLOUDY    66  65  97 N12       30.04R
LAWRENCEVILLE* CLOUDY    67  65  92 N7        29.97S
EMPORIA*       CLOUDY    66  64  94 W8        29.97R
$$

VAZ088>098-191300-
SOUTHEAST VIRGINIA

CITY           SKY/WX    TMP DP  RH WIND       PRES   REMARKS
NORFOLK        CLOUDY    74  69  85 N20G31    29.87R
VIRGINIA BEACH LGT RAIN  72  66  81 N13G28    29.84R
NORFOLK NAVAL  LGT RAIN  74  67  78 N21G31    29.89R
WEST POINT*    MOSUNNY   70  66  88 N6        29.94R
SALUDA*        FAIR      71  69  95 N13G18    29.92R
NEWPORT NEWS   CLOUDY    71  66  84 N9        29.90R
LANGLEY AFB    PTSUNNY   72  68  87 N14G21    29.88S
FORT EUSTIS    CLOUDY    71  67  86 N8        29.88S
WILLIAMSBURG*  SUNNY     70  68  94 N7        29.93R
HR EXEC AP*    CLOUDY    71  67  87 VRB6      29.89S
FRANKLIN*      PTSUNNY   68  65  90 NW7       29.92S
US460-WAKEFLD  CLOUDY    69  67  93 N7        29.93R
$$

VAZ020-022-025-037-045-191300-
WEST CENTRAL AND SOUTHWEST VIRGINIA

CITY           SKY/WX    TMP DP  RH WIND       PRES   REMARKS
STAUNTON*      MOSUNNY   62  61  97 NE3       30.08S FOG
WAYNESBORO*    CLOUDY    64  64 100 CALM      30.07S
HOT SPRINGS VA FOG       59  59 100 CALM      30.15R VSB<1/4
LYNCHBURG      SUNNY     65  63  93 CALM      30.04R
DANVILLE       SUNNY     65  65 100 N5        30.02R
SOUTH BOSTON*  PTSUNNY   65  64  96 N3        30.02R
MARTINSVILLE   CLOUDY    58  58  97 CALM      30.08R FOG
ROANOKE        CLOUDY    64  63  96 CALM      30.08R
BLACKSBURG     FOG       60  60 100 CALM      30.12S VSB<1/4
DUBLIN*        FOG       60  60 100 CALM      30.10S VSB<1/4
MARION*        FOG       59  56  90 CALM      30.14R VSB<1/4
HILLSVILLE*    FOG       57  53  86 CALM      30.10S VSB 1/4
RICHLANDS*     FAIR      60  58  96 CALM      30.10S
WISE*          CLEAR     59  59 100 S3        30.11R
ABINGDON*      CLEAR     60  60  99 E3        30.08S
$$

MDZ021>025-VAZ099-100-191300-
SOUTHERN MARYLAND AND THE DELMARVA PENINSULA

CITY           SKY/WX    TMP DP  RH WIND       PRES   REMARKS
PATUXENT RIVER PTSUNNY   72  68  87 N15       29.94S
BAY BRIDGE APT CLOUDY    72  68  88 NE10      29.97S
LEONARDTOWN    PTSUNNY   70  66  88 N3        29.96S
DOVER          PTSUNNY   70  68  94 N15       29.93S
GEORGETOWN     CLOUDY    72  67  84 N13G22    29.91S
EASTON         MOSUNNY   72  66  83 N10       29.99S
CAMBRIDGE      PTSUNNY   72  68  88 N12       29.93F
SALISBURY      CLOUDY    71  69  93 N14       29.89F
OCEAN CITY     HVY RAIN  71  69  93 NE20G29   29.87S FOG
WALLOPS ISLAND LGT RAIN  70  69  97 N14G20    29.86F FOG
ACCOMACK*      CLOUDY    70  68  93 N8        29.86F
$$

NCZ012>017-030>032-191300-
NORTH CENTRAL AND EASTERN NORTH CAROLINA

CITY           SKY/WX    TMP DP  RH WIND       PRES   REMARKS
ROANOKE RAPIDS CLOUDY    68  64  88 MISG      29.95R
RALEIGH        MOSUNNY   67  65  93 VRB5      29.99S
ELIZABETH CITY CLOUDY    73  69  87 NW14      29.84R
AHOSKIE*         N/A     68  66  94 N7        29.93R
EDENTON*       CLOUDY    71  67  88 NW14      29.88R
CURRITUCK*     RAIN      70  67  90 N20G26    29.85R
KILL DEVIL HLS NOT AVBL
MANTEO         CLOUDY    70  66  86 NE29G38   29.82R
CAPE HATTERAS  CLOUDY    72  71  97 MISG      29.81R
TARBORO*       NOT AVBL
GOLDSBORO      PTSUNNY   68  68 100 NW7       29.94R
WASHINGTON     CLOUDY    69  66  90 NW7       29.92S
GREENVILLE     CLOUDY    68  66  94 NW6       29.96R
NEW BERN       CLOUDY    70  67  90 NW10      29.93R
WILMINGTON     SUNNY     69  67  93 NW7       29.95R
$$

VAZ048-191300-
ELSEWHERE

CITY           SKY/WX    TMP DP  RH WIND       PRES   REMARKS
HARRISBURG PA  CLOUDY    67  65  93 NW6       30.03S
BALTIMORE      PTSUNNY   69  67  93 VRB5      29.99S
ANNAPOLIS      CLOUDY    73  71  93 N9        29.97S
ANDREWS AFB    MOSUNNY   68  65  90 N10       29.97F
PHILADELPHIA   CLOUDY    72  66  81 N21G26    29.98S
HENDERSON NC   CLOUDY    64  61  93 NW5       30.00R
GREENSBORO     PTSUNNY   67  66  97 N5        30.04R
ROCKY MOUNT    CLOUDY    68  66  93 N9        29.96R
$$

VAZ100-191300-
MARINE

STATION/POSITION TIME  TEMP    WIND        PRES    WAVE   SWELL
                       AIR SEA DIR/SP/G            HT/PER HT/PER
                 (UTC) (F)     (DEG/KT/KT) (MB)    (FT/S) (FT/S)
BRANDYWINE LGT   1142   73      20/ 25/ 29 1013.2F
CAPE MAY NJ      1148   71 74   20/  9/ 15 1012.3R
LEWES DE         1142   73 72   20/ 21/ 25 1012.6F
15NM E FENWICK I 1150   71 71   10/ 29/ 35 1009.7F  13/13   8/13
OCEAN-CITY-INLET 1142   72 73   30/ 18/ 25 1011.5R
WACHAPREAGUE VA  1142   69 74  360/  8/ 12 1011.2S
THOMAS POINT MD  1200   72 75   20/ 22/ 24   N/A
GOOSES REEF MD   1200   73 74   40/ 19/ 21 1014.4
COVE POINT MD    1142   72      30/ 22/ 25 1014.6S
SOLOMONS ISLAND  1142   72 76   10/ 15/ 19 1013.5S
BISHOPS HEAD MD  1142   71 74  360/ 12/ 19 1013.2S
PINEY POINT MD   1142           20/ 12/ 17   N/A
POTOMAC MD       1200   72 75   10/ 17/ 23 1012.6    1/ 2
CAMBRIDGE MD     1142   71 76              1014.5F
LEWISETTA VA     1142   72 76   20/ 13/ 18 1013.3S
RAPPAHANNOCK LGT 1142          360/ 27/ 35 1012.3R
STINGRAY PT      1150   73      30/ 21/ 25 1012.5R
YORK RVR RNG VA  1142   72     360/ 20/ 23 1012.2S
YORKTOWN VA      1142   72 76  350/ 13/ 18 1012.3R
JAMESTOWN VA     1200      77  360/ 10/ 14   N/A
DOMINION TERM VA 1142   72     120/  2/  4 1012.2R
KIPTOPEKE VA     1142      75   10/ 16/ 20   N/A
CHES BAY BRIDGE  1142   73 75   10/ 30/ 34 1011.0R
CAPE HENRY VA    1142   73     350/ 25/ 29   N/A
WILLOUBY STN VA  1142   73     360/ 18/ 21 1011.7R
S CRANEY ISL VA  1142   72     350/ 11/ 16 1011.6R
CAPE HENRY BUOY  1200      74                N/A    10/13   5/13
1ST LANDING BUOY 1140   74                 1010.7R
64NM E OF VA BCH 1150   71 71  350/ 33/ 41 1004.9F  16/10  13/10
DUCK PIER NC     1142   71 75   10/ 31/ 39 1008.5R
44100 DUCK FRF   1135      74                N/A    16/13  10/13
44056 DUCK FRF   1200      75                N/A    13/13   8/13
OREGON INLET NC  1142   70 74  350/ 22/ 36 1008.5R
HATTERAS NC      1142   72 76  330/ 21/ 25 1009.4R
DIAMOND SHLS NC  1150   73 77  340/ 27/ 33 1008.0R  10/11   8/11
CAPE LOOKOUT NC  1200   71     320/ 16/ 19 1011.7R
$$




USA.gov is the U.S. government's official web portal to all federal, state and local government web resources and services.